Location: Milton Keynes
(52.0316°N, 0.7531°W)
Time: 14:29:32
(UTC+00:00)

ISS - Pass Details

Date: 02 February 2019
Orbit: 403 x 411 km, 51.6° (Epoch: 20 February)

Event Time Altitude Azimuth Distance (km) Brightness Sun altitude
Rises 20:14:30 0° 282° (WNW) 2,342 1.2 -31.1°
Reaches altitude 10° 20:16:45 10° 271° (W) 1,480 -0.2 -31.4°
Enters shadow 20:16:54 11° 270° (W) 1,429 -0.3 -31.4°
